Oskaloosa, IA

1:37 PM CDT on June 28, 2017 (GMT -0500)
Oskaloosa Municipal

Weather History for KOOA - January, 2013

Change the Weather History Date:

Wednesday, January 23, 2013

  Actual Average (KOTM) Record (KOTM)
Temperature  
Mean Temperature 20 °F -  
Max Temperature 30 °F 34 °F 64 °F (1942)
Min Temperature 8 °F 16 °F -21 °F (1963)
Degree Days  
Heating Degree Days 46    
Moisture  
Dew Point 8 °F    
Average Humidity 63    
Maximum Humidity 80    
Minimum Humidity 53    
Precipitation  
Precipitation 0.00 in - - ()
Sea Level Pressure  
Sea Level Pressure 30.26 in    
Wind  
Wind Speed 10 mph (West)    
Max Wind Speed 28 mph    
Max Gust Speed 32 mph    
Visibility 10 miles    
Events      
Averages and records for this station are not official NWS values.
T = Trace of Precipitation, MM = Missing Value Source: NWS Daily Summary

Daily Weather History Graph

Daily Weather History Graph

Search for Another Location

Airport or City:

Trip Planner

Search our weather history database for the weather conditions in past years. The results will help you decide how hot, cold, wet, or windy it might be!

Date:

Astronomy

Jan. 23, 2013 Rise Set
Actual Time 7:28 AM CST 5:15 PM CST
Civil Twilight 6:58 AM CST 5:45 PM CST
Nautical Twilight 6:25 AM CST 6:19 PM CST
Astronomical Twilight 5:52 AM CST 6:51 PM CST
Moon 2:26 PM CST (1/23) 4:40 AM CST (1/23)
Length of Visible Light 10h 46m
Length of Day
9h 47m
Waxing Gibbous, 89% of the Moon is Illuminated
Jan 23
Waxing Gibbous
Jan 26
Full
Feb 3
Last Quarter
Feb 10
New
Feb 17
First Quarter

Hourly Weather History & Observations

Time (CST) Temp. Windchill Dew Point Humidity Pressure Visibility Wind Dir Wind Speed Gust Speed Precip Events Conditions
12:15 AM 14.9 °F 7.5 °F 4.8 °F 64% 30.31 in 10.0 mi South 4.6 mph - N/A   Overcast
12:35 AM 15.1 °F 6.4 °F 5.0 °F 64% 30.30 in 10.0 mi South 5.8 mph - N/A   Overcast
12:55 AM 15.3 °F 7.9 °F 5.4 °F 65% 30.30 in 10.0 mi South 4.6 mph - N/A   Overcast
1:15 AM 15.6 °F 7.0 °F 5.4 °F 64% 30.29 in 10.0 mi South 5.8 mph - N/A   Overcast
1:35 AM 15.8 °F 8.6 °F 4.3 °F 60% 30.29 in 10.0 mi South 4.6 mph - N/A   Overcast
1:55 AM 15.8 °F 6.1 °F 4.3 °F 60% 30.28 in 10.0 mi South 6.9 mph - N/A   Overcast
2:15 AM 15.8 °F 6.1 °F 4.5 °F 61% 30.27 in 10.0 mi South 6.9 mph - N/A   Overcast
2:35 AM 16.2 °F 7.6 °F 4.8 °F 61% 30.27 in 10.0 mi South 5.8 mph - N/A   Overcast
2:55 AM 16.5 °F 6.9 °F 5.4 °F 62% 30.28 in 10.0 mi South 6.9 mph - N/A   Overcast
3:15 AM 16.5 °F 6.0 °F 5.4 °F 62% 30.27 in 10.0 mi South 8.1 mph - N/A   Overcast
3:35 AM 16.5 °F 6.9 °F 5.7 °F 63% 30.26 in 10.0 mi South 6.9 mph - N/A   Overcast
3:55 AM 16.7 °F 7.2 °F 5.5 °F 62% 30.25 in 10.0 mi SSW 6.9 mph - N/A   Overcast
4:15 AM 16.5 °F 5.1 °F 6.3 °F 64% 30.25 in 10.0 mi South 9.2 mph - N/A   Overcast
4:35 AM 15.6 °F 4.9 °F 6.1 °F 66% 30.24 in 10.0 mi SSW 8.1 mph - N/A   Overcast
4:55 AM 14.7 °F 3.8 °F 5.9 °F 68% 30.24 in 10.0 mi South 8.1 mph - N/A   Overcast
5:15 AM 12.6 °F 3.4 °F 5.0 °F 72% 30.24 in 10.0 mi South 5.8 mph - N/A   Scattered Clouds
5:35 AM 11.3 °F 1.9 °F 4.5 °F 74% 30.23 in 10.0 mi South 5.8 mph - N/A   Clear
5:55 AM 10.9 °F 2.9 °F 4.5 °F 75% 30.22 in 10.0 mi SSE 4.6 mph - N/A   Clear
6:15 AM 11.3 °F -1.3 °F 5.0 °F 76% 30.21 in 10.0 mi South 9.2 mph - N/A   Clear
6:35 AM 11.3 °F -1.3 °F 5.0 °F 76% 30.20 in 10.0 mi South 9.2 mph - N/A   Clear
6:55 AM 11.3 °F -1.3 °F 5.4 °F 77% 30.21 in 10.0 mi South 9.2 mph - N/A   Clear
7:15 AM 10.8 °F 2.7 °F 5.0 °F 78% 30.22 in 10.0 mi South 4.6 mph - N/A   Clear
7:35 AM 9.7 °F 1.4 °F 4.6 °F 80% 30.21 in 10.0 mi SSE 4.6 mph - N/A   Clear
7:55 AM 10.0 °F 0.4 °F 5.0 °F 80% 30.19 in 10.0 mi SSE 5.8 mph - N/A   Clear
8:15 AM 12.0 °F 1.5 °F 6.6 °F 79% 30.19 in 10.0 mi South 6.9 mph - N/A   Clear
8:35 AM 13.8 °F 4.9 °F 7.5 °F 76% 30.19 in 10.0 mi South 5.8 mph - N/A   Clear
8:55 AM 15.4 °F 5.6 °F 8.1 °F 73% 30.20 in 10.0 mi SSW 6.9 mph - N/A   Clear
9:15 AM 18.0 °F 8.7 °F 8.4 °F 66% 30.20 in 10.0 mi SSW 6.9 mph - N/A   Clear
9:35 AM 19.4 °F 9.5 °F 8.8 °F 63% 30.19 in 10.0 mi SW 8.1 mph - N/A   Clear
9:55 AM 21.2 °F 10.9 °F 10.0 °F 62% 30.19 in 10.0 mi SW 9.2 mph - N/A   Clear
10:15 AM 23.5 °F 13.7 °F 11.1 °F 59% 30.19 in 10.0 mi SW 9.2 mph - N/A   Clear
10:35 AM 25.9 °F 16.0 °F 12.4 °F 57% 30.20 in 10.0 mi West 10.4 mph - N/A   Clear
10:55 AM 26.4 °F 15.0 °F 12.4 °F 55% 30.20 in 10.0 mi West 13.8 mph - N/A   Clear
11:15 AM 28.2 °F 16.3 °F 13.6 °F 54% 30.19 in 10.0 mi WNW 16.1 mph - N/A   Clear
11:35 AM 28.2 °F 16.3 °F 14.2 °F 56% 30.19 in 10.0 mi WNW 16.1 mph 24.2 mph N/A   Clear
11:55 AM 28.6 °F 16.4 °F 14.7 °F 56% 30.18 in 10.0 mi WNW 17.3 mph 21.9 mph N/A   Clear
12:15 PM 29.1 °F 18.4 °F 15.3 °F 56% 30.18 in 10.0 mi WNW 13.8 mph - N/A   Clear
12:35 PM 29.7 °F 18.6 °F 16.0 °F 57% 30.17 in 10.0 mi NW 15.0 mph - N/A   Clear
12:55 PM 30.2 °F 19.3 °F 16.7 °F 57% 30.18 in 10.0 mi NW 15.0 mph 21.9 mph N/A   Clear
1:15 PM 30.6 °F 19.4 °F 17.1 °F 57% 30.17 in 10.0 mi NW 16.1 mph 24.2 mph N/A   Clear
1:35 PM 30.6 °F 19.4 °F 16.9 °F 57% 30.17 in 10.0 mi NW 16.1 mph 25.3 mph N/A   Clear
1:55 PM 30.7 °F 19.2 °F 16.7 °F 56% 30.17 in 10.0 mi NW 17.3 mph 23.0 mph N/A   Clear
2:15 PM 30.7 °F 19.2 °F 16.9 °F 56% 30.17 in 10.0 mi NW 17.3 mph 23.0 mph N/A   Clear
2:35 PM 30.9 °F 19.1 °F 17.2 °F 57% 30.17 in 10.0 mi NW 18.4 mph 24.2 mph N/A   Clear
2:55 PM 30.0 °F 17.9 °F 16.5 °F 57% 30.19 in 10.0 mi NW 18.4 mph - N/A   Clear
3:15 PM 29.5 °F 18.0 °F 16.5 °F 59% 30.20 in 10.0 mi NW 16.1 mph 25.3 mph N/A   Clear
3:35 PM 28.9 °F 17.3 °F 16.5 °F 60% 30.21 in 10.0 mi NW 16.1 mph 24.2 mph N/A   Clear
3:55 PM 29.8 °F 18.4 °F 16.9 °F 59% 30.21 in 10.0 mi NW 16.1 mph - N/A   Clear
4:15 PM 28.6 °F 15.6 °F 16.3 °F 60% 30.22 in 10.0 mi NW 19.6 mph 24.2 mph N/A   Clear
4:35 PM 27.9 °F 14.4 °F 15.3 °F 59% 30.22 in 10.0 mi NNW 20.7 mph 27.6 mph N/A   Clear
4:55 PM 27.1 °F 15.9 °F 15.6 °F 62% 30.24 in 10.0 mi NW 13.8 mph 20.7 mph N/A   Clear
5:15 PM 26.1 °F 15.0 °F 15.4 °F 64% 30.25 in 10.0 mi NW 12.7 mph - N/A   Clear
5:35 PM 25.3 °F 13.6 °F 14.7 °F 64% 30.26 in 10.0 mi NW 13.8 mph - N/A   Clear
5:55 PM 24.8 °F 11.5 °F 14.0 °F 64% 30.27 in 10.0 mi NW 17.3 mph 26.5 mph N/A   Clear
6:15 PM 24.1 °F 8.7 °F 13.1 °F 63% 30.28 in 10.0 mi NNW 23.0 mph 27.6 mph N/A   Clear
6:35 PM 23.0 °F 8.3 °F 11.5 °F 61% 30.30 in 10.0 mi NNW 19.6 mph 27.6 mph N/A   Clear
6:55 PM 22.3 °F 7.0 °F 11.3 °F 63% 30.30 in 10.0 mi NNW 20.7 mph 29.9 mph N/A   Clear
7:15 PM 21.2 °F 5.6 °F 10.6 °F 64% 30.32 in 10.0 mi NNW 20.7 mph 25.3 mph N/A   Clear
7:35 PM 19.6 °F 3.5 °F 7.7 °F 60% 30.33 in 10.0 mi NNW 20.7 mph 27.6 mph N/A   Clear
7:55 PM 18.0 °F -0.8 °F 3.2 °F 53% 30.34 in 10.0 mi NNW 27.6 mph 32.2 mph N/A   Clear
8:15 PM 16.7 °F -1.5 °F 3.0 °F 55% 30.35 in 10.0 mi NNW 24.2 mph 31.1 mph N/A   Clear
8:35 PM 14.9 °F -3.1 °F 0.9 °F 54% 30.36 in 10.0 mi NNW 21.9 mph 31.1 mph N/A   Clear
8:55 PM 14.0 °F -3.4 °F 0.9 °F 56% 30.38 in 10.0 mi NNW 19.6 mph 24.2 mph N/A   Clear
9:15 PM 12.9 °F -5.7 °F 0.1 °F 57% 30.39 in 10.0 mi NNW 21.9 mph 26.5 mph N/A   Clear
9:35 PM 11.8 °F -6.3 °F -0.0 °F 59% 30.41 in 10.0 mi North 19.6 mph 24.2 mph N/A   Clear
9:55 PM 11.3 °F -7.4 °F -0.0 °F 60% 30.42 in 10.0 mi North 20.7 mph 28.8 mph N/A   Clear
10:15 PM 10.8 °F -6.2 °F 0.3 °F 63% 30.44 in 10.0 mi NNW 16.1 mph 20.7 mph N/A   Clear
10:35 PM 10.2 °F -5.7 °F 0.5 °F 65% 30.44 in 10.0 mi NNW 13.8 mph - N/A   Clear
10:55 PM 10.0 °F -6.5 °F 0.5 °F 65% 30.45 in 10.0 mi North 15.0 mph 20.7 mph N/A   Clear
11:15 PM 9.5 °F -7.2 °F -1.3 °F 62% 30.46 in 10.0 mi North 15.0 mph - N/A   Clear
11:35 PM 9.3 °F -8.0 °F -2.6 °F 59% 30.48 in 10.0 mi North 16.1 mph 23.0 mph N/A   Clear
11:55 PM 8.6 °F -8.3 °F -2.4 °F 61% 30.49 in 10.0 mi North 15.0 mph - N/A   Clear